Regional Weather Roundup
Issued by NWS

Home | Current Version | Previous Version | Graphics & Text | Print | Product List | Glossary Off
Versions: 1 2 3 4 5 6 7 8 9 10 11 12 13 14 15 16 17 18 19 20 21 22 23 24 25 26 27 28 29 30 31 32 33 34 35 36 37 38 39 40 41 42 43 44 45 46 47 48 49 50

000
ASUS43 KTOP 251859
RWRKS

WEATHER ROUNDUP FOR KANSAS
NATIONAL WEATHER SERVICE GOODLAND KS
200 PM CDT THU MAY 25 2017

NOTE:  "FAIR" INDICATES FEW OR NO CLOUDS BELOW 12,000 FEET WITH NO
SIGNIFICANT WEATHER AND/OR OBSTRUCTIONS TO VISIBILITY.

KSZ001>006-013>018-027>032-041>047-252000-
NORTHWEST KANSAS

CITY           SKY/WX    TMP DP  RH WIND       PRES   REMARKS
GOODLAND       SUNNY     84  52  33 E9        29.52R
HAYS           SUNNY     74  56  53 SE16      29.49F
HILL CITY      SUNNY     79  54  41 S9        29.49F
RUSSELL        SUNNY     73  55  53 S24G31    29.49F
$$

KSZ061>065-074>080-084>089-252000-
SOUTHWEST KANSAS

CITY           SKY/WX    TMP DP  RH WIND       PRES   REMARKS
DODGE CITY     CLOUDY    78  55  44 S16       29.52F
ELKHART          N/A     91  45  20 W9          N/A
GARDEN CITY    SUNNY     83  49  30 S10       29.50F
GREAT BEND     MOSUNNY   72  55  55 S12G18    29.53F
LIBERAL        MOSUNNY   82  55  39 S5        29.53F
$$

KSZ066>073-081>083-090>101-252000-
SOUTHEAST KANSAS

CITY           SKY/WX    TMP DP  RH WIND       PRES   REMARKS
CHANUTE        SUNNY     76  53  44 SE15G25   29.64F
COFFEYVILLE    SUNNY     77  57  50 S17G25    29.64F
HUTCHINSON     SUNNY     75  53  46 S17G24    29.55S
MEDICINE LODGE   N/A     78  54  43 S12G17    29.53R
NEWTON         MOSUNNY   76  54  46 S16G23    29.57F
PARSONS        SUNNY     77  53  43 SE13G21   29.65F
WICHITA INTL   MOSUNNY   78  55  44 SE17G28   29.54S
WICHITA JABRA  SUNNY     73  53  49 S20G28    29.54S
WINFIELD       SUNNY     76  55  48 S16G25    29.57F
$$

KSZ007>012-019>026-033>040-048>060-102>105-252000-
NORTHEAST KANSAS

CITY           SKY/WX    TMP DP  RH WIND       PRES   REMARKS
CONCORDIA      PTSUNNY   70  54  56 S18G25    29.52F
EMPORIA        CLOUDY    75  53  46 S22G30    29.58F
LAWRENCE       SUNNY     76  52  43 SE16      29.63F
MANHATTAN      SUNNY     76  52  43 S13       29.58S
OLATHE IND     SUNNY     74  51  44 SE16      29.65F
OLATHE EXE     SUNNY     72  55  55 S16       29.66F
SALINA         PTSUNNY   78  55  44 S10       29.55F
TOPEKA BILLARD SUNNY     76  53  44 SE18G24   29.61F
TOPEKA FORBES  SUNNY     77  53  43 SE17G23   29.61F
$$




USA.gov is the U.S. government's official web portal to all federal, state and local government web resources and services.